Location: Unspecified
(0.0000°N, 0.0000°E)
Time: 07:08:12
(UTC+00:00)

Vanguard 2 - Pass Details

Date: 17 December 2017
Orbit: 553 x 2939 km, 32.9° (Epoch: 19 July)

Event Time Altitude Azimuth Distance (km) Brightness Sun altitude
Rises 00:32:10 0° 267° (W) 3,380 - -65.0°
Reaches altitude 10° 00:34:52 10° 252° (WSW) 2,705 - -64.8°
Maximum altitude 00:40:00 23° 201° (SSW) 2,392 - -64.3°
Exits shadow 00:46:07 13° 157° (SSE) 3,653 11.2 -63.7°
Drops below altitude 10° 00:47:22 10° 153° (SSE) 3,997 11.4 -63.5°
Sets 00:52:30 0° 140° (SE) 5,477 12.3 -62.9°
